Regional Weather Roundup
Issued by NWS Upton, NY

Current Version | Previous Version | Graphics & Text | Print | Product List | Glossary Off
Versions: 1 2 3 4 5 6 7 8 9 10 11 12 13 14 15 16 17 18 19 20 21 22 23 24 25 26 27 28 29 30 31 32 33 34 35 36 37 38 39 40 41 42 43 44 45 46 47 48 49 50

000
ASUS41 KOKX 020005
RWROKX

REGIONAL WEATHER ROUNDUP
NATIONAL WEATHER SERVICE NEW YORK NY
800 PM EDT WED OCT 01 2014

NOTE: "FAIR" INDICATES FEW OR NO CLOUDS BELOW 12,000 FEET WITH NO
SIGNIFICANT WEATHER AND/OR OBSTRUCTIONS TO VISIBILITY.

NYZ071-072-176-178-NJZ106-104-020100-
NEW YORK CITY METRO AREA


CITY           SKY/WX    TMP DP  RH WIND       PRES   REMARKS
CENTRAL PARK   CLOUDY    64  56  75 NE9       30.09R
LAGUARDIA APRT CLOUDY    65  56  72 NE12      30.06R
KENNEDY INTL   CLOUDY    64  56  75 N14       30.07R
NEWARK/LIBERTY CLOUDY    65  59  81 NE10      30.06R
BRNX BOT. GARD   N/A     61  55  82 CALM      30.09R
TETERBORO      CLOUDY    64  57  78 NE5       30.06R
$$

NYZ177-179-078>081-020100-
LONG ISLAND NEW YORK

CITY           SKY/WX    TMP DP  RH WIND       PRES   REMARKS
FARMINGDALE    CLOUDY    62  58  86 N9        30.06R
ISLIP          MOCLDY    61  57  87 N12       30.03R
SHIRLEY        LGT RAIN  60  58  92 N8        30.05R
WESTHAMPTON    CLOUDY    60  58  92 N9        30.05S
MONTAUK POINT    N/A     60  58  92 N13G20    30.04R
$$

NYZ052-065-067-020100-
HUDSON VALLEY

CITY           SKY/WX    TMP DP  RH WIND       PRES   REMARKS
WHITE PLAINS   CLOUDY    61  55  81 N8        30.07R
NEWBURGH       CLOUDY    61  59  94 NE8       30.10R
MONTGOMERY     CLOUDY    62  58  86 NE7       30.08R
POUGHKEEPSIE   CLOUDY    62  59  90 N3        30.08R
ALBANY         CLOUDY    62  58  86 NE3       30.12R
$$

NJZ001-105-106-008-010-013-015-019>022-104-020100-
NEW JERSEY

CITY           SKY/WX    TMP DP  RH WIND       PRES   REMARKS
NEWARK/LIBERTY CLOUDY    65  59  81 NE10      30.06R
TETERBORO      CLOUDY    64  57  78 NE5       30.06R
CALDWELL       CLOUDY    64  56  75 NE5       30.07R
MORRISTOWN     CLOUDY    64  59  82 NE5       30.07R
SOMERVILLE     CLOUDY    65  57  75 CALM      30.05R
LINDEN         CLOUDY    69  61  77 NE8       30.08R
SUSSEX         CLOUDY    65  57  75 NE6       30.08R
ANDOVER          N/A     62  58  86 VRB3      30.08R
TRENTON        CLOUDY    64  57  78 NE6       30.05R
MILLVILLE      CLEAR     62  58  86 CALM      30.04R
ATLANTIC CITY  CLOUDY    63  60  90 N6        30.04R
WRIGHTSTOWN    CLOUDY    63  60  89 N6        30.04R
TOMS RIVER     CLOUDY    63  59  88 N3        30.05R
BELMAR         CLOUDY    63  55  77 N7        30.06R
$$

PAZ047>061-062-071-020100-
EASTERN PENNSYLVANIA

CITY           SKY/WX    TMP DP  RH WIND       PRES   REMARKS
PHILADELPHIA   PTCLDY    67  57  70 E9G17     30.05R
ALLENTOWN      MOCLDY    62  55  77 NE5       30.06R
SCRANTON       MOCLDY    63  54  72 NE6       30.07R
$$

CTZ002-004>006-009-010-012-RIZ004-006-007-MAZ004-011-015-020100-
SOUTHERN NEW ENGLAND
 IN CT

CITY           SKY/WX    TMP DP  RH WIND       PRES   REMARKS
BRADLEY INTL   CLOUDY    60  55  83 N7        30.09R
HARTFORD       CLOUDY    59  56  89 N9        30.08R
DANBURY        LGT RAIN  59  56  89 NE7       30.10R FOG
WTRBRY/OXFORD  CLOUDY    57  52  82 NE9       30.09S FOG
BRIDGEPORT     LGT RAIN  60  58  92 NE10      30.07R FOG
MERIDEN        CLOUDY    59  56  89 N7        30.07S
NEW HAVEN      CLOUDY    62  58  86 N10       30.06R
CHESTER        CLOUDY    57  55  94 NE7       30.07R
GROTON         CLOUDY    57  56  96 N14       30.04R
WILLIMANTIC    CLOUDY    58  54  86 N10       30.07S

 IN RI

CITY           SKY/WX    TMP DP  RH WIND       PRES   REMARKS
PROVIDENCE     LGT RAIN  58  56  93 N15       30.06R
BLOCK ISLAND   CLOUDY    61  55  82 N13G18    30.03R
WESTERLY       CLOUDY    58  56  93 N12       30.04S

 IN MA

CITY           SKY/WX    TMP DP  RH WIND       PRES   REMARKS
BOSTON         LGT RAIN  57  56  96 NE20G25   30.08S FOG
WORCESTER      LGT RAIN  54  53  97 NE13      30.11R FOG
WESTFIELD      CLOUDY    59  56  89 N8        30.10R FOG
PROVINCETOWN   CLOUDY    61  57  88 NE16G22   30.06S
NANTUCKET      RAIN      61  59  93 NE17      30.01S
$$

ANZ330-335-338-340-345-350-353-355-020100-
COASTAL MARINE OBSERVATIONS


STATION/POSITION TIME  SKY/WX   TEMP    WIND        PRES    VSBY  WAVE
                                AIR SEA DIR/SP/G                  HT/PER
                 (UTC)          (F)     (DEG/KT/KT) (MB)    (MI)  (FT/S)
NY HARB ENTRANCE NOT AVBL
4S FIRE IS       NOT AVBL
20S FIRE ISLAND  0000            62 67   20/ 19/ 21 1016.4          5/ 6
23SW MTP         0000                                 N/A           6/ 6
HUDSON CANYON    0000            66 70   20/ 21/ 25 1014.3          8/ 7
EXECUTION ROCKS  0000            65 68   40/ 16/ 19   N/A
WESTERN LI SOUND 2300            64      40/ 14/ 16   N/A           1/ 4
CENTRAL LI SOUND 2300            60 68   10/ 16/ 19   N/A           2/ 3
EASTERN LI SOUND 2300            61 67   20/ 14/ 19   N/A
ROBBINS REEF     0000            65      50/ 14/ 17 1016.4
$$


>>>>>>>>>>>>>>>>>>>>>>>>>>>> KEY <<<<<<<<<<<<<<<<<<<<<<<<<<<
>                                                          <
>     SKY/WX - SKY CONDITION/PRESENT WEATHER               <
>     TMP    - TEMPERATURE IN FAHRENHEIT                   <
>     DP     - DEWPOINT IN FAHRENHEIT                      <
>     RH     - RELATIVE HUMIDITY IN PERCENT                <
>     WIND   - DIRECTION AND SPEED IN MPH                  <
>     PRES   - MEAN SEA LEVEL PRESSURE IN INCHES OF HG     <
>     WCI    - WIND CHILL INDEX                            <
>     VSB    - VISIBILITY IN MILES                         <
>     HX     - HEAT INDEX                                  <
>     TC     - TEMPERATURE IN CELSIUS                      <
>     VRB    - VARIABLE WIND DIRECTION                     <
>                                                          <
>>>>>>>>>>>>>>>>>>>>>>>>>>>> KEY <<<<<<<<<<<<<<<<<<<<<<<<<<<





USA.gov is the U.S. government's official web portal to all federal, state and local government web resources and services.